Regional Weather Roundup
Issued by NWS Bismarck, ND

Home | Current Version | Previous Version | Text Only | Print | Product List | Glossary On
Versions: 1 2 3 4 5 6 7 8 9 10 11 12 13 14 15 16 17 18 19 20 21 22 23 24 25 26 27 28 29 30 31 32 33 34 35 36 37 38 39 40 41 42 43 44 45 46 47 48 49 50
591
ASUS43 KBIS 281502
RWRBIS

NWR BROADCAST TEXT
NATIONAL WEATHER SERVICE BISMARCK ND
1000 AM CDT SAT MAY 28 2016

NOTE: "FAIR" INDICATES FEW OR NO CLOUDS BELOW 12,000 FEET WITH NO
SIGNIFICANT WEATHER AND/OR OBSTRUCTIONS TO VISIBILITY.


CITY           SKY/WX    TMP DP  RH WIND       PRES   REMARKS
WILLISTON      CLOUDY    58  52  80 E8        29.89S
MINOT          CLOUDY    59  53  80 NE8       29.90R
MINOT AFB      NOT AVBL
BISMARCK       CLOUDY    62  55  77 NE6       29.89R
DICKINSON      SUNNY     59  49  69 E3        29.87S
GARRISON         N/A     60  53  77 VRB5      29.89R
HETTINGER ARPT SUNNY     65  48  54 VRB5      29.89S
JAMESTOWN      CLOUDY    62  58  86 N12       29.85R
CARRINGTON     CLOUDY    57  54  88 N8        29.90R
HAZEN          PTSUNNY   57  55  94 E7        29.91R FOG
MANDAN         CLOUDY    59  55  88 NE7       29.90S
OAKES            N/A    N/A N/A N/A MISG        N/A
STANLEY        CLOUDY    52  52 100 E9        29.93S FOG
$$

CITY           SKY/WX    TMP DP  RH WIND       PRES   REMARKS
GRAND FORKS    MOSUNNY   70  54  56 NE10      29.83R
GRAND FORKS AF MOSUNNY   68  58  69 VRB5      29.84R
DEVILS LAKE    CLOUDY    58  56  93 N8        29.88S
FARGO          CLOUDY    66  56  70 N6        29.81S
CAVALIER       PTSUNNY   63  61  94 N5        29.87R
GRAFTON        FAIR      68  61  77 N6        29.87R
GWINNER        FAIR      64  61  88 N8        29.83S
LANGDON        CLOUDY    57  57 100 N7        29.88S FOG
$$

CITY           SKY/WX    TMP DP  RH WIND       PRES   REMARKS
ABERDEEN       LGT RAIN  62  59  90 NE10      29.83R
MOBRIDGE       CLOUDY    61  53  75 NW7       29.83R
BUFFALO          N/A     64  49  57 NW3       29.84R
RAPID CITY     SUNNY     64  47  53 NW3       29.91R
GLASGOW        CLOUDY    53  51  93 W12       29.89R
SIDNEY         CLOUDY    60  54  80 SE6       29.88S
WOLF POINT     CLOUDY    60  53  77 CALM      29.88R
GLENDIVE       SUNNY     61  52  72 CALM      29.90S
MILES CITY     CLOUDY    55  49  80 W14       29.92R
BAKER          PTSUNNY   63  48  58 SW9       29.90R
$$

CITY           SKY/WX    TMP DP  RH WIND       PRES   REMARKS
BILLINGS       CLOUDY    53  41  63 NW7       29.99R
GREAT FALLS    SUNNY     52  32  46 SW18      29.98R
$$





USA.gov is the U.S. government's official web portal to all federal, state and local government web resources and services.